Bariloche, Argentina

6:10 AM America on October 17, 2017 (GMT +0000)
S C De Bariloche

Weather History for SAZS - November, 2012

Change the Weather History Date:

Monday, November 5, 2012

  Actual Average Record
Temperature  
Mean Temperature 52 °F -  
Max Temperature 60 °F 64 °F 82 °F (2015)
Min Temperature 44 °F 39 °F 28 °F (2005)
Degree Days  
Heating Degree Days 13    
Growing Degree Days 2 (Base 50)    
Moisture  
Dew Point 35 °F    
Average Humidity 51    
Maximum Humidity 63    
Minimum Humidity 27    
Precipitation  
Precipitation 0.00 in 0.03 in - ()
Sea Level Pressure  
Sea Level Pressure 30.01 in    
Wind  
Wind Speed 14 mph ()    
Max Wind Speed 26 mph    
Max Gust Speed 32 mph    
Visibility 5.8 miles    
Events      
Averages and records for this station are not official NWS values.
T = Trace of Precipitation, MM = Missing Value Source: Averaged Metar Reports

Daily Weather History Graph

Daily Weather History Graph

Search for Another Location

Airport or City:

Trip Planner

Search our weather history database for the weather conditions in past years. The results will help you decide how hot, cold, wet, or windy it might be!

Date:

Astronomy

Nov. 05, 2012 Rise Set
Actual Time 6:26 AM -03 8:31 PM -03
Civil Twilight 5:55 AM -03 9:01 PM -03
Nautical Twilight 5:18 AM -03 9:38 PM -03
Astronomical Twilight 4:38 AM -03 10:19 PM -03
Moon 1:22 AM -03 (11/5) 11:38 AM -03 (11/5)
Length of Visible Light 15h 05m
Length of Day
14h 05m
Waning Gibbous, 64% of the Moon is Illuminated
Nov 5
Waning Gibbous
Nov 6
Last Quarter
Nov 13
New
Nov 20
First Quarter
Nov 28
Full

Hourly Weather History & Observations

Time (-03) Temp. Windchill Dew Point Humidity Pressure Visibility Wind Dir Wind Speed Gust Speed Precip Events Conditions
12:00 AM 48.2 °F - 26.6 °F 43% 30.04 in - WNW 9.2 mph - N/A   Clear
1:00 AM 44.6 °F 38.1 °F 28.4 °F 53% 30.01 in - WNW 13.8 mph - N/A   Clear
2:00 AM 44.6 °F 38.8 °F 28.4 °F 53% 30.01 in - NW 11.5 mph - N/A   Clear
3:00 AM 44 °F - 31 °F 47%  in 6 mi NW 10.4 mph - -  
3:00 AM 44.6 °F 39.2 °F 30.2 °F 57% 30.01 in - NW 10.4 mph - N/A   Clear
4:00 AM 44.6 °F 38.4 °F 32.0 °F 61% 29.98 in - WNW 12.7 mph - N/A   Clear
5:00 AM 44.6 °F 37.4 °F 32.0 °F 61% 30.01 in - WNW 16.1 mph - N/A   Clear
6:00 AM 44.6 °F 37.8 °F 32.0 °F 61% 30.01 in - WNW 15.0 mph - N/A   Clear
7:00 AM 46.4 °F 40.7 °F 32.0 °F 57% 30.01 in - WNW 12.7 mph - N/A   Clear
8:00 AM 48.2 °F - 30.2 °F 50% 30.01 in 6.2 mi NW 15.0 mph - N/A   Mostly Cloudy
9:00 AM 53 °F - 29 °F 27%  in 6 mi WNW 17.3 mph - -   Partly Cloudy
9:00 AM 53.6 °F - 28.4 °F 38% 30.04 in 6.2 mi WNW 17.3 mph - N/A   Scattered Clouds
10:00 AM 55.4 °F - 26.6 °F 33% 30.04 in 6.2 mi WNW 20.7 mph - N/A   Scattered Clouds
11:00 AM 57.2 °F - 30.2 °F 36% 30.01 in 6.2 mi WNW 24.2 mph - N/A   Scattered Clouds
12:00 PM 57.2 °F - 35.6 °F 44% 30.01 in 6.2 mi NW 21.9 mph - N/A   Scattered Clouds
1:00 PM 60.8 °F - 39.2 °F 45% 30.01 in 6.2 mi NW 23.0 mph - N/A   Mostly Cloudy
2:00 PM 60.8 °F - 41.0 °F 48% 30.01 in 6.2 mi NW 24.2 mph - N/A   Mostly Cloudy
3:00 PM 60 °F - 42 °F 39%  in 6 mi NW 26.5 mph - -   Mostly Cloudy
3:00 PM 60.8 °F - 41.0 °F 48% 30.01 in 5.6 mi NW 26.5 mph - N/A   Mostly Cloudy
4:00 PM 60.8 °F - 42.8 °F 52% 30.01 in 5.6 mi NW 20.7 mph 32.2 mph N/A   Mostly Cloudy
5:00 PM 57.2 °F - 44.6 °F 63% 30.01 in 5.6 mi NW 19.6 mph - N/A   Mostly Cloudy
6:00 PM 57.2 °F - 42.8 °F 59% 30.01 in 5.6 mi NW 19.6 mph - N/A   Mostly Cloudy
7:00 PM 57.2 °F - 42.8 °F 59% 30.01 in 5.6 mi NW 21.9 mph - N/A   Mostly Cloudy
8:00 PM 55.4 °F - 41.0 °F 58% 30.01 in 5.0 mi NW 13.8 mph - N/A   Mostly Cloudy
9:00 PM 53.6 °F - 41.0 °F 62% 30.04 in 5.0 mi NW 21.9 mph - N/A   Mostly Cloudy
10:00 PM 53.6 °F - 41.0 °F 62% 30.01 in 5.0 mi NW 16.1 mph - N/A   Mostly Cloudy
11:00 PM 51.8 °F - 39.2 °F 62% 30.01 in 6.2 mi NW 18.4 mph - N/A   Mostly Cloudy